User: anonymous   Login
Location: Robledo de Chavela
(40.5014°N, 4.2377°W)
Time: 17:54:04
(UTC+00:00)
Language:

Okean 1 Rocket - Orbit

View from above orbital plane
View from above orbital plane
View from above satellite
View from above satellite

Ground track
Ground track

The orbit data is extracted from the following two-line orbital elements,

1 19275U 88056B   24170.88511017  .00000689  00000-0  79782-4 0  9996
2 19275  82.5158  95.0971 0021003  59.6360 300.6928 14.83908739921373
Epoch (UTC): 18 June 2024 21:14:33
Eccentricity: 0.0021003
inclination: 82.5158°
perigee height: 602 km
apogee height: 632 km
right ascension of ascending node: 95.0971°
argument of perigee: 59.6360°
revolutions per day: 14.83908739
mean anomaly at epoch: 300.6928°
orbit number at epoch: 92137

The dashed part of the orbit path shows where the satellite is in the earth's shadow,  

DLR